• MPC Preparation (Info)

  • MPEC 2014-P19 : 2014 OA339

    The following Minor Planet Electronic Circular may be linked-to from your own Web pages, but must not otherwise be redistributed electronically.

    A form allowing access to any MPEC is at the bottom of this page.


    Read MPEC 2014-P18 Read MPEC 2014-P20


    M.P.E.C. 2014-P19                                Issued 2014 Aug. 3, 15:44 UT
    
         The Minor Planet Electronic Circulars contain information on unusual
             minor planets and routine data on comets.  They are published
       on behalf of Commission 20 of the International Astronomical Union by the
              Minor Planet Center, Smithsonian Astrophysical Observatory,
                              Cambridge, MA 02138, U.S.A.
    
                 Prepared using the Tamkin Foundation Computer Network
    
                                  MPC@CFA.HARVARD.EDU
                URL https://www.minorplanetcenter.net/    ISSN 1523-6714
    
                                      2014 OA339
    
    Observations:
         K14OX9A* C2014 07 25.36947 19 51 01.514-31 43 51.25         21.1 wLEP019F51
         K14OX9A  C2014 07 25.37943 19 50 59.482-31 44 14.82         21.1 wLEP019F51
         K14OX9A  C2014 07 25.38945 19 50 57.435-31 44 38.50         21.3 wLEP019F51
         K14OX9A KC2014 07 25.97582819 49 12.606-32 07 44.42         20.7 RqEP019J04
         K14OX9A KC2014 07 25.98371919 49 10.924-32 08 03.54               qEP019J04
         K14OX9A KC2014 07 25.98634819 49 10.359-32 08 10.45         20.5 RqEP019J04
         K14OX9A _C2014 07 26.38774119 47 54.656-32 24 20.32         20.6 RtEP019568
         K14OX9A _C2014 07 26.38899419 47 54.359-32 24 23.32         20.7 RtEP019568
         K14OX9A _C2014 07 26.39024919 47 54.100-32 24 26.55         20.5 RtEP019568
         K14OX9A 2C2014 07 30.43121219 32 25.591-35 31 18.48         21.1 RtEP019568
         K14OX9A 2C2014 07 30.43246319 32 25.204-35 31 22.26         20.5 RtEP019568
         K14OX9A 2C2014 07 30.43409119 32 24.699-35 31 27.28         20.6 RtEP019568
    
    Observer details:
    568 Mauna Kea.  Observers R. J. Wainscoat, P. Forshay, D. J. Tholen.
        Measurers M. Micheli, R. J. Wainscoat, D. J. Tholen.  2.24-m University of
        Hawaii reflector, 3.6-m Canada-France-Hawaii Telescope + CCD.
    F51 Pan-STARRS 1, Haleakala.  Observers N. Primak, A. Schultz, T. Goggia,
        M. Willman.  1.8-m Ritchey-Chretien + CCD.
    J04 ESA Optical Ground Station, Tenerife.  Observer D. Abreu.  Measurers
        M. Micheli, D. Koschny, M. Busch, A. Knoefel, E. Schwab.  1.0-m f/4.4
        reflector + CCD.
    
    Orbital elements:
    2014 OA339                                               Earth MOID = 0.0117 AU
    Epoch 2014 May 23.0 TT = JDT 2456800.5                  MPC
    M 267.92504              (2000.0)            P               Q
    n   0.65472060     Peri.  314.72881     +0.82847042     -0.55908297
    a   1.3135060      Node    79.28991     +0.52274176     +0.75110460
    e   0.3730014      Incl.    1.90152     +0.20094232     +0.35109559
    P   1.51           H   24.4           G   0.15           U   8
    Residuals in seconds of arc
    140725 F51  0.1+  0.0     140725 J04  0.1-  0.4+    140726 568  0.1+  0.1-
    140725 F51  0.0   0.0     140725 J04  0.2-  0.1-    140730 568  0.0   0.0
    140725 F51  0.1-  0.0     140726 568  0.1+  0.1-    140730 568  0.0   0.0
    140725 J04  0.1+  0.1+    140726 568  0.2-  0.0     140730 568  0.0   0.0
    
    Ephemeris:
    2014 OA339               a,e,i = 1.31, 0.37, 2                   q = 0.8236
    Date    TT    R. A. (2000) Decl.     Delta      r     Elong.  Phase     V
    2014 07 04    20 19 33.9 -23 39 35   0.2753  1.2784   159.7    16.0    23.0
    ...
    2014 07 19    20 05 28.2 -28 16 54   0.1756  1.1903   172.1     6.8    21.5
    ...
    2014 07 27    19 45 54.1 -32 48 56   0.1311  1.1423   164.0    14.2    21.1
    ...
    2014 08 02    19 19 06.5 -37 54 46   0.1019  1.1061   152.2    25.4    20.8
    2014 08 03    19 12 52.9 -38 57 23   0.09744 1.1000   149.8    27.7    20.8
    2014 08 04    19 05 56.0 -40 03 49   0.09305 1.0940   147.2    30.1    20.7
    ...
    2014 08 10    17 59 52.6 -47 58 21   0.06958 1.0582   128.2    48.8    20.6
    ...
    2014 08 18    14 20 22.2 -52 09 51   0.05126 1.0114    87.6    89.5    21.1
    ...
    2014 09 02    10 15 11.3 -11 47 34   0.08446 0.9308    21.1   157.0    28.9
    
    A. U. Tomatic                (C) Copyright 2014 MPC           M.P.E.C. 2014-P19
    

    Read MPEC 2014-P18 Read MPEC 2014-P20


    MPEC number:

    Enter an MPEC number in one of the following forms:

    • 1997-B01 (the full form)
    • J97B01 (the packed version of the full form)
    • B01 (the abbreviated form)